TAP97LS LPPT-LPMA

Flight info

Callsign TAP97LS
Flight time 1h 25m
Altitude 37000
Route ULVOT DCT GALPA DCT RAKUN
Aircraft A320/M-SDE3FGHIRWY/LB1

Departure

Time 2026-05-06 20:18
Airport Lisbon Humberto Delgado Airport (LPPT)

Arrival

Time 2026-05-06 21:44
Airport Cristiano Ronaldo International Airport (LPMA)
Time Latitude Longitude Altitude Speed Heading
2026-05-06 19:43 38.77028 -9.13086 337 ft 0 kts 78°
2026-05-06 19:43 38.77028 -9.13087 337 ft 0 kts 78°
2026-05-06 19:58 38.77027 -9.13087 337 ft 0 kts 78°
2026-05-06 20:00 38.77027 -9.13088 337 ft 0 kts 78°
2026-05-06 20:10 38.77023 -9.13115 336 ft 4 kts 78°
2026-05-06 20:10 38.77018 -9.13149 333 ft 4 kts 90°
2026-05-06 20:11 38.77023 -9.13177 335 ft 3 kts 160°
2026-05-06 20:11 38.77026 -9.13179 336 ft 1 kts 168°
2026-05-06 20:12 38.77027 -9.13179 336 ft 0 kts 168°
2026-05-06 20:13 38.77025 -9.13178 336 ft 1 kts 168°
2026-05-06 20:13 38.77008 -9.13173 333 ft 4 kts 167°
2026-05-06 20:14 38.76964 -9.13161 338 ft 7 kts 167°
2026-05-06 20:14 38.76877 -9.13139 338 ft 18 kts 170°
2026-05-06 20:14 38.76782 -9.13161 337 ft 7 kts 253°
2026-05-06 20:14 38.76763 -9.13289 353 ft 23 kts 257°
2026-05-06 20:15 38.76668 -9.13460 348 ft 24 kts 236°
2026-05-06 20:15 38.76626 -9.13656 352 ft 23 kts 257°
2026-05-06 20:15 38.76593 -9.13858 346 ft 24 kts 258°
2026-05-06 20:15 38.76530 -9.14054 357 ft 24 kts 230°
2026-05-06 20:16 38.76510 -9.14218 343 ft 11 kts 291°
2026-05-06 20:16 38.76518 -9.14242 337 ft 1 kts 292°
2026-05-06 20:16 38.76521 -9.14253 337 ft 1 kts 292°
2026-05-06 20:16 38.76532 -9.14287 335 ft 0 kts 292°
2026-05-06 20:17 38.76536 -9.14299 336 ft 8 kts 292°
2026-05-06 20:17 38.76619 -9.14399 336 ft 18 kts 17°
2026-05-06 20:17 38.76741 -9.14335 337 ft 28 kts 21°
2026-05-06 20:18 38.77154 -9.14116 359 ft 97 kts 22°
2026-05-06 20:18 38.77962 -9.13687 368 ft 151 kts 24°
2026-05-06 20:18 38.78941 -9.13110 923 ft 155 kts 25°
2026-05-06 20:18 38.79925 -9.12572 1764 ft 151 kts 19°
2026-05-06 20:19 38.80882 -9.12070 2476 ft 154 kts 19°
2026-05-06 20:19 38.81900 -9.11441 2939 ft 173 kts 28°
2026-05-06 20:19 38.82961 -9.10566 3362 ft 191 kts 30°
2026-05-06 20:19 38.84163 -9.09638 3728 ft 214 kts 27°
2026-05-06 20:20 38.85518 -9.08619 4191 ft 238 kts 28°
2026-05-06 20:20 38.86977 -9.07419 4755 ft 260 kts 41°
2026-05-06 20:20 38.88021 -9.05490 5575 ft 271 kts 70°
2026-05-06 20:20 38.88269 -9.03087 6509 ft 275 kts 96°
2026-05-06 20:21 38.87724 -9.00737 7425 ft 279 kts 121°
2026-05-06 20:21 38.86438 -8.98889 8340 ft 282 kts 146°
2026-05-06 20:21 38.84637 -8.97923 9259 ft 285 kts 172°
2026-05-06 20:21 38.82661 -8.98053 10140 ft 287 kts 198°
2026-05-06 20:22 38.80921 -8.99286 10985 ft 289 kts 223°
2026-05-06 20:22 38.79476 -9.01215 11394 ft 312 kts 228°
2026-05-06 20:22 38.77983 -9.03350 11824 ft 330 kts 229°
2026-05-06 20:22 38.76451 -9.05581 12590 ft 336 kts 229°
2026-05-06 20:23 38.74900 -9.07842 13452 ft 339 kts 229°
2026-05-06 20:23 38.73333 -9.10118 14241 ft 342 kts 229°
2026-05-06 20:23 38.71749 -9.12404 15014 ft 344 kts 229°
2026-05-06 20:23 38.70151 -9.14699 15799 ft 346 kts 229°
2026-05-06 20:24 38.68538 -9.17007 16556 ft 349 kts 228°
2026-05-06 20:24 38.66912 -9.19335 17299 ft 352 kts 228°
2026-05-06 20:24 38.65270 -9.21686 18053 ft 356 kts 228°
2026-05-06 20:24 38.63611 -9.24055 18702 ft 359 kts 228°
2026-05-06 20:25 38.61937 -9.26442 19322 ft 362 kts 228°
2026-05-06 20:25 38.60248 -9.28845 19958 ft 365 kts 228°
2026-05-06 20:25 38.58543 -9.31265 20572 ft 368 kts 228°
2026-05-06 20:25 38.56848 -9.33670 21167 ft 370 kts 228°
2026-05-06 20:26 38.55122 -9.36126 21757 ft 373 kts 228°
2026-05-06 20:26 38.53384 -9.38603 22344 ft 376 kts 228°
2026-05-06 20:26 38.51629 -9.41095 22891 ft 379 kts 228°
2026-05-06 20:26 38.49862 -9.43603 23429 ft 381 kts 228°
2026-05-06 20:27 38.48080 -9.46129 23837 ft 384 kts 228°
2026-05-06 20:27 38.46290 -9.48663 23946 ft 384 kts 228°
2026-05-06 20:27 38.44497 -9.51202 24219 ft 386 kts 228°
2026-05-06 20:27 38.42695 -9.53756 24676 ft 388 kts 228°
2026-05-06 20:28 38.40884 -9.56322 25137 ft 390 kts 229°
2026-05-06 20:28 38.39061 -9.58895 25578 ft 392 kts 229°
2026-05-06 20:28 38.37228 -9.61478 26010 ft 394 kts 229°
2026-05-06 20:28 38.35385 -9.64071 26439 ft 396 kts 229°
2026-05-06 20:29 38.33532 -9.66677 26865 ft 398 kts 229°
2026-05-06 20:29 38.31673 -9.69296 27281 ft 400 kts 229°
2026-05-06 20:29 38.29804 -9.71931 27688 ft 402 kts 229°
2026-05-06 20:29 38.27929 -9.74570 28088 ft 404 kts 229°
2026-05-06 20:30 38.26036 -9.77226 28488 ft 406 kts 229°
2026-05-06 20:30 38.22215 -9.82584 29265 ft 410 kts 229°
2026-05-06 20:30 38.20296 -9.85275 29638 ft 413 kts 229°
2026-05-06 20:31 38.18360 -9.87984 29995 ft 415 kts 229°
2026-05-06 20:31 38.16435 -9.90671 30275 ft 417 kts 229°
2026-05-06 20:31 38.14455 -9.93433 30554 ft 419 kts 230°
2026-05-06 20:31 38.12506 -9.96150 30818 ft 422 kts 230°
2026-05-06 20:32 38.10500 -9.98943 31089 ft 424 kts 230°
2026-05-06 20:32 38.08509 -10.01717 31357 ft 426 kts 230°
2026-05-06 20:32 38.06537 -10.04463 31684 ft 426 kts 230°
2026-05-06 20:32 38.04542 -10.07240 32073 ft 425 kts 230°
2026-05-06 20:33 38.02550 -10.10009 32460 ft 424 kts 231°
2026-05-06 20:33 38.00562 -10.12773 32846 ft 424 kts 231°
2026-05-06 20:33 37.98575 -10.15532 33215 ft 423 kts 231°
2026-05-06 20:33 37.96590 -10.18286 33584 ft 423 kts 231°
2026-05-06 20:34 37.94609 -10.21028 33961 ft 422 kts 231°
2026-05-06 20:34 37.92624 -10.23770 34274 ft 422 kts 231°
2026-05-06 20:34 37.90639 -10.26512 34565 ft 423 kts 231°
2026-05-06 20:34 37.88652 -10.29259 34826 ft 423 kts 231°
2026-05-06 20:35 37.86660 -10.32010 35071 ft 424 kts 231°
2026-05-06 20:35 37.84662 -10.34764 35315 ft 425 kts 231°
2026-05-06 20:35 37.82658 -10.37523 35561 ft 426 kts 231°
2026-05-06 20:35 37.80651 -10.40288 35798 ft 427 kts 231°
2026-05-06 20:36 37.78641 -10.43056 36032 ft 428 kts 231°
2026-05-06 20:36 37.76627 -10.45829 36252 ft 429 kts 231°
2026-05-06 20:36 37.74607 -10.48607 36459 ft 430 kts 231°
2026-05-06 20:36 37.72581 -10.51387 36684 ft 431 kts 230°
2026-05-06 20:37 37.70549 -10.54171 36891 ft 431 kts 230°
2026-05-06 20:37 37.68537 -10.56923 36993 ft 432 kts 230°
2026-05-06 20:37 37.66476 -10.59739 37024 ft 432 kts 230°
2026-05-06 20:38 37.62422 -10.65270 37014 ft 432 kts 230°
2026-05-06 20:38 37.58345 -10.70820 37016 ft 432 kts 230°
2026-05-06 20:39 37.54263 -10.76384 37018 ft 432 kts 231°
2026-05-06 20:39 37.50174 -10.81950 37026 ft 433 kts 231°
2026-05-06 20:40 37.46075 -10.87511 37019 ft 433 kts 231°
2026-05-06 20:40 37.41966 -10.93068 37014 ft 434 kts 231°
2026-05-06 20:41 37.37849 -10.98624 37014 ft 434 kts 231°
2026-05-06 20:41 37.33727 -11.04184 37018 ft 435 kts 231°
2026-05-06 20:42 37.29605 -11.09739 37017 ft 435 kts 231°
2026-05-06 20:42 37.25468 -11.15297 37019 ft 436 kts 231°
2026-05-06 20:43 37.21333 -11.20865 37022 ft 436 kts 231°
2026-05-06 20:43 37.17186 -11.26428 37024 ft 437 kts 231°
2026-05-06 20:44 37.13029 -11.31989 37022 ft 437 kts 231°
2026-05-06 20:44 37.08893 -11.37514 37024 ft 438 kts 231°
2026-05-06 20:45 37.04717 -11.43066 37023 ft 438 kts 231°
2026-05-06 20:45 37.00537 -11.48629 37027 ft 439 kts 231°
2026-05-06 20:46 36.96355 -11.54200 37027 ft 439 kts 231°
2026-05-06 20:46 36.92159 -11.59766 37029 ft 440 kts 231°
2026-05-06 20:47 36.87953 -11.65331 37031 ft 441 kts 232°
2026-05-06 20:47 36.83731 -11.70890 37032 ft 441 kts 232°
2026-05-06 20:48 36.79511 -11.76459 37036 ft 442 kts 232°
2026-05-06 20:48 36.75294 -11.82027 37036 ft 442 kts 232°
2026-05-06 20:49 36.71058 -11.87596 37036 ft 443 kts 232°
2026-05-06 20:49 36.66821 -11.93170 37039 ft 443 kts 232°
2026-05-06 20:50 36.62571 -11.98740 37042 ft 444 kts 232°
2026-05-06 20:50 36.58340 -12.04270 37043 ft 444 kts 232°
2026-05-06 20:51 36.54083 -12.09835 37039 ft 445 kts 232°
2026-05-06 20:51 36.49808 -12.15411 37042 ft 445 kts 232°
2026-05-06 20:52 36.46229 -12.20072 37049 ft 445 kts 232°
2026-05-06 20:52 36.41974 -12.25601 37052 ft 446 kts 233°
2026-05-06 20:53 36.37688 -12.31166 37050 ft 446 kts 232°
2026-05-06 20:53 36.33393 -12.36724 37049 ft 446 kts 233°
2026-05-06 20:54 36.29096 -12.42281 37056 ft 446 kts 233°
2026-05-06 20:54 36.24799 -12.47829 37055 ft 447 kts 233°
2026-05-06 20:55 36.20485 -12.53383 37057 ft 447 kts 233°
2026-05-06 20:55 36.16183 -12.58928 37062 ft 447 kts 233°
2026-05-06 20:56 36.11865 -12.64474 37059 ft 447 kts 233°
2026-05-06 20:56 36.07543 -12.70013 37062 ft 448 kts 233°
2026-05-06 20:57 36.03223 -12.75545 37060 ft 448 kts 233°
2026-05-06 20:57 35.98893 -12.81078 37059 ft 448 kts 233°
2026-05-06 20:58 35.94583 -12.86569 37058 ft 448 kts 233°
2026-05-06 20:58 35.90241 -12.92094 37062 ft 448 kts 233°
2026-05-06 20:59 35.85899 -12.97620 37062 ft 449 kts 233°
2026-05-06 20:59 35.81551 -13.03141 37066 ft 449 kts 233°
2026-05-06 21:00 35.77208 -13.08651 37065 ft 449 kts 233°
2026-05-06 21:00 35.72848 -13.14164 37073 ft 449 kts 233°
2026-05-06 21:01 35.68495 -13.19658 37069 ft 449 kts 233°
2026-05-06 21:01 35.64134 -13.25147 37070 ft 449 kts 233°
2026-05-06 21:02 35.59773 -13.30631 37074 ft 448 kts 233°
2026-05-06 21:02 35.55445 -13.36075 37074 ft 448 kts 234°
2026-05-06 21:03 35.51090 -13.41547 37082 ft 448 kts 234°
2026-05-06 21:03 35.46743 -13.47008 37088 ft 447 kts 234°
2026-05-06 21:04 35.42385 -13.52456 37086 ft 447 kts 234°
2026-05-06 21:04 35.38027 -13.57880 37091 ft 446 kts 234°
2026-05-06 21:05 35.33679 -13.63298 37096 ft 445 kts 234°
2026-05-06 21:05 35.29342 -13.68707 37094 ft 445 kts 234°
2026-05-06 21:06 35.25007 -13.74099 37092 ft 444 kts 234°
2026-05-06 21:06 35.20674 -13.79476 37091 ft 443 kts 234°
2026-05-06 21:07 35.16348 -13.84834 37092 ft 443 kts 234°
2026-05-06 21:07 35.12045 -13.90149 37093 ft 443 kts 234°
2026-05-06 21:08 35.07715 -13.95491 37091 ft 442 kts 234°
2026-05-06 21:08 35.03383 -14.00823 37092 ft 442 kts 234°
2026-05-06 21:09 34.99050 -14.06149 37092 ft 442 kts 234°
2026-05-06 21:09 34.94722 -14.11472 37091 ft 442 kts 234°
2026-05-06 21:10 34.90393 -14.16783 37090 ft 441 kts 234°
2026-05-06 21:10 34.86069 -14.22078 37081 ft 441 kts 234°
2026-05-06 21:11 34.81737 -14.27377 37077 ft 441 kts 234°
2026-05-06 21:11 34.77410 -14.32660 37079 ft 441 kts 234°
2026-05-06 21:12 34.73072 -14.37947 37077 ft 442 kts 234°
2026-05-06 21:12 34.68726 -14.43229 37078 ft 442 kts 233°
2026-05-06 21:13 34.64379 -14.48514 37082 ft 442 kts 234°
2026-05-06 21:13 34.60056 -14.53766 37082 ft 443 kts 233°
2026-05-06 21:14 34.55689 -14.59044 37090 ft 443 kts 233°
2026-05-06 21:14 34.51328 -14.64314 37092 ft 443 kts 233°
2026-05-06 21:15 34.46966 -14.69592 37096 ft 443 kts 233°
2026-05-06 21:15 34.42596 -14.74862 37097 ft 443 kts 233°
2026-05-06 21:16 34.38219 -14.80123 37096 ft 443 kts 233°
2026-05-06 21:16 34.33854 -14.85374 37094 ft 443 kts 233°
2026-05-06 21:17 34.29482 -14.90627 37096 ft 443 kts 233°
2026-05-06 21:17 34.25097 -14.95871 37099 ft 443 kts 233°
2026-05-06 21:18 34.20714 -15.01113 37100 ft 443 kts 233°
2026-05-06 21:18 34.16331 -15.06349 37099 ft 443 kts 233°
2026-05-06 21:19 34.11978 -15.11552 37095 ft 443 kts 233°
2026-05-06 21:19 34.07585 -15.16782 37099 ft 444 kts 233°
2026-05-06 21:20 34.03184 -15.22002 36793 ft 445 kts 233°
2026-05-06 21:20 34.00975 -15.24625 36530 ft 445 kts 233°
2026-05-06 21:20 33.98769 -15.27250 36263 ft 446 kts 233°
2026-05-06 21:20 33.96562 -15.29875 35988 ft 447 kts 233°
2026-05-06 21:21 33.94340 -15.32513 35187 ft 447 kts 232°
2026-05-06 21:21 33.92134 -15.35119 34333 ft 441 kts 232°
2026-05-06 21:21 33.89948 -15.37690 33584 ft 438 kts 232°
2026-05-06 21:21 33.87778 -15.40242 33041 ft 434 kts 232°
2026-05-06 21:22 33.85626 -15.42780 32438 ft 432 kts 232°
2026-05-06 21:22 33.83491 -15.45302 31876 ft 430 kts 232°
2026-05-06 21:22 33.81361 -15.47819 31300 ft 428 kts 232°
2026-05-06 21:22 33.79239 -15.50324 30734 ft 427 kts 232°
2026-05-06 21:23 33.77118 -15.52824 30165 ft 425 kts 231°
2026-05-06 21:23 33.75014 -15.55299 29555 ft 423 kts 231°
2026-05-06 21:23 33.72921 -15.57757 29006 ft 419 kts 231°
2026-05-06 21:23 33.70874 -15.60160 28452 ft 415 kts 231°
2026-05-06 21:24 33.68817 -15.62574 27917 ft 412 kts 231°
2026-05-06 21:24 33.66778 -15.64966 27394 ft 408 kts 231°
2026-05-06 21:24 33.64755 -15.67336 26889 ft 405 kts 231°
2026-05-06 21:24 33.62749 -15.69686 26388 ft 401 kts 231°
2026-05-06 21:25 33.60761 -15.72018 25905 ft 398 kts 231°
2026-05-06 21:25 33.58790 -15.74328 25429 ft 395 kts 231°
2026-05-06 21:25 33.56833 -15.76618 24956 ft 391 kts 230°
2026-05-06 21:25 33.54894 -15.78881 24505 ft 389 kts 230°
2026-05-06 21:26 33.52972 -15.81121 24022 ft 378 kts 230°
2026-05-06 21:26 33.51100 -15.83300 23547 ft 374 kts 230°
2026-05-06 21:26 33.49244 -15.85467 23056 ft 372 kts 230°
2026-05-06 21:26 33.47396 -15.87623 22582 ft 370 kts 230°
2026-05-06 21:27 33.45559 -15.89765 22113 ft 368 kts 230°
2026-05-06 21:27 33.43728 -15.91904 21641 ft 366 kts 230°
2026-05-06 21:27 33.41912 -15.94025 21163 ft 365 kts 230°
2026-05-06 21:27 33.40094 -15.96144 20678 ft 364 kts 229°
2026-05-06 21:28 33.38276 -15.98259 20202 ft 364 kts 229°
2026-05-06 21:28 33.36464 -16.00362 19720 ft 364 kts 229°
2026-05-06 21:28 33.34648 -16.02467 19241 ft 363 kts 229°
2026-05-06 21:28 33.32859 -16.04540 18756 ft 361 kts 229°
2026-05-06 21:29 33.31085 -16.06590 18274 ft 349 kts 229°
2026-05-06 21:29 33.29363 -16.08576 17811 ft 342 kts 229°
2026-05-06 21:29 33.27658 -16.10552 17358 ft 341 kts 229°
2026-05-06 21:29 33.25958 -16.12527 16916 ft 341 kts 229°
2026-05-06 21:30 33.24260 -16.14499 16484 ft 340 kts 228°
2026-05-06 21:30 33.22560 -16.16466 16048 ft 340 kts 228°
2026-05-06 21:30 33.20860 -16.18430 15610 ft 340 kts 228°
2026-05-06 21:30 33.19159 -16.20392 15179 ft 340 kts 228°
2026-05-06 21:31 33.17457 -16.22353 14738 ft 340 kts 227°
2026-05-06 21:31 33.15757 -16.24310 14298 ft 340 kts 227°
2026-05-06 21:31 33.14051 -16.26271 13837 ft 340 kts 227°
2026-05-06 21:31 33.12349 -16.28230 13363 ft 339 kts 227°
2026-05-06 21:32 33.10659 -16.30180 12905 ft 337 kts 227°
2026-05-06 21:32 33.07306 -16.34041 12005 ft 334 kts 227°
2026-05-06 21:32 33.05637 -16.35956 11546 ft 332 kts 227°
2026-05-06 21:33 33.03977 -16.37861 11084 ft 331 kts 227°
2026-05-06 21:33 33.02324 -16.39758 10629 ft 329 kts 226°
2026-05-06 21:33 33.00684 -16.41642 10301 ft 323 kts 226°
2026-05-06 21:33 32.99092 -16.43463 10180 ft 311 kts 227°
2026-05-06 21:34 32.97561 -16.45215 10055 ft 300 kts 227°
2026-05-06 21:34 32.96085 -16.46906 9516 ft 293 kts 227°
2026-05-06 21:34 32.94620 -16.48587 8927 ft 293 kts 227°
2026-05-06 21:34 32.93191 -16.50226 8415 ft 286 kts 227°
2026-05-06 21:35 32.91744 -16.51887 7901 ft 284 kts 226°
2026-05-06 21:35 32.90350 -16.53484 7409 ft 282 kts 226°
2026-05-06 21:35 32.88940 -16.55093 6901 ft 279 kts 226°
2026-05-06 21:35 32.87565 -16.56657 6705 ft 268 kts 227°
2026-05-06 21:36 32.86243 -16.58157 6571 ft 259 kts 227°
2026-05-06 21:36 32.84942 -16.59631 6451 ft 258 kts 225°
2026-05-06 21:36 32.83617 -16.61078 6082 ft 259 kts 224°
2026-05-06 21:36 32.82238 -16.62470 5640 ft 262 kts 217°
2026-05-06 21:37 32.80649 -16.63515 5295 ft 260 kts 204°
2026-05-06 21:37 32.78947 -16.64230 4684 ft 260 kts 199°
2026-05-06 21:37 32.77277 -16.64900 4431 ft 244 kts 199°
2026-05-06 21:37 32.75725 -16.65522 4300 ft 228 kts 200°
2026-05-06 21:38 32.74240 -16.66120 3993 ft 223 kts 200°
2026-05-06 21:38 32.72777 -16.66710 3613 ft 221 kts 199°
2026-05-06 21:38 32.71324 -16.67298 3217 ft 220 kts 200°
2026-05-06 21:38 32.69878 -16.67884 3004 ft 218 kts 200°
2026-05-06 21:39 32.68430 -16.68472 3012 ft 221 kts 200°
2026-05-06 21:39 32.66973 -16.69063 2994 ft 222 kts 200°
2026-05-06 21:39 32.65513 -16.69654 2538 ft 229 kts 200°
2026-05-06 21:39 32.63983 -16.70281 2084 ft 234 kts 203°
2026-05-06 21:40 32.62615 -16.71249 2018 ft 218 kts 223°
2026-05-06 21:40 32.61644 -16.72546 2016 ft 209 kts 240°
2026-05-06 21:40 32.61055 -16.74041 1992 ft 188 kts 256°
2026-05-06 21:40 32.60845 -16.75420 2020 ft 155 kts 270°
2026-05-06 21:41 32.60886 -16.76634 1999 ft 142 kts 282°
2026-05-06 21:41 32.61112 -16.77740 2010 ft 137 kts 294°
2026-05-06 21:41 32.61551 -16.78725 1826 ft 133 kts 310°
2026-05-06 21:41 32.62189 -16.79501 1641 ft 130 kts 326°
2026-05-06 21:42 32.62961 -16.80042 1464 ft 128 kts 339°
2026-05-06 21:42 32.63814 -16.80319 1303 ft 127 kts 353°
2026-05-06 21:42 32.64700 -16.80366 1120 ft 127 kts
2026-05-06 21:42 32.65586 -16.80381 951 ft 127 kts
2026-05-06 21:43 32.66475 -16.80338 787 ft 130 kts
2026-05-06 21:43 32.67349 -16.80076 592 ft 131 kts 20°
2026-05-06 21:43 32.68092 -16.79463 422 ft 132 kts 42°
2026-05-06 21:43 32.68727 -16.78661 294 ft 133 kts 40°
2026-05-06 21:44 32.69384 -16.77920 170 ft 125 kts 46°
2026-05-06 21:44 32.69787 -16.77445 183 ft 49 kts 43°
2026-05-06 21:44 32.69955 -16.77224 188 ft 17 kts 85°
2026-05-06 21:44 32.69917 -16.77189 191 ft 8 kts 171°
2026-05-06 21:45 32.69852 -16.77185 183 ft 10 kts 193°
2026-05-06 21:45 32.69793 -16.77237 180 ft 12 kts 225°
2026-05-06 21:45 32.69726 -16.77316 172 ft 15 kts 226°
2026-05-06 21:45 32.69647 -16.77415 169 ft 17 kts 226°
2026-05-06 21:46 32.69594 -16.77480 169 ft 10 kts 226°
2026-05-06 21:46 32.69568 -16.77512 169 ft 7 kts 226°
2026-05-06 21:46 32.69538 -16.77550 169 ft 6 kts 226°
2026-05-06 21:46 32.69524 -16.77563 169 ft 1 kts 202°
2026-05-06 21:47 32.69503 -16.77555 169 ft 7 kts 153°
2026-05-06 21:47 32.69476 -16.77528 169 ft 2 kts 137°
2026-05-06 21:47 32.69469 -16.77520 169 ft 0 kts 137°